EW0401 Weather Reports


time (UTC)temp
C
wind
direction
speed
KPH
gust
KPH
rain 1hr
cm
rain 24hr
cm
rain mn
cm
humidity
%
barometer
mb
20260508004550 23 0 0.0 3.2 0.00 0.05 0.03 79 1014.1
20260508003100 24 0 0.0 4.8 0.00 0.05 0.03 79 1014.2
20260508001559 24 0 0.0 3.2 0.00 0.05 0.03 78 1014.2
20260508000100 24 0 0.0 4.8 0.00 0.05 0.03 78 1013.9
20260507234554 24 0 0.0 4.8 0.00 0.05 0.03 78 1013.8
20260507233052 25 0 0.0 8.0 0.00 0.05 0.03 77 1013.9
20260507231555 25 0 0.0 4.8 0.00 0.05 0.03 77 1013.9
20260507230052 25 0 0.0 4.8 0.00 0.05 0.03 77 1013.8
20260507224615 25 0 1.6 8.0 0.00 0.05 0.03 77 1013.6
20260507223056 25 303 0.0 8.0 0.00 0.05 0.03 77 1013.7
20260507221551 25 69 0.0 9.7 0.00 0.05 0.03 77 1013.8
20260507220051 25 71 0.0 8.0 0.00 0.05 0.03 76 1013.8
20260507214553 25 0 0.0 4.8 0.00 0.05 0.03 77 1013.7
20260507213054 25 0 0.0 4.8 0.00 0.05 0.03 77 1013.7
20260507211609 25 0 0.0 3.2 0.00 0.05 0.03 76 1013.9
20260507210054 25 0 0.0 6.4 0.00 0.05 0.03 76 1014.2
20260507204559 25 299 0.0 8.0 0.00 0.05 0.03 78 1014.3
20260507203051 25 62 1.6 9.7 0.00 0.05 0.03 77 1014.5
20260507201609 25 59 1.6 8.0 0.00 0.05 0.03 76 1014.7
20260507194558 25 0 0.0 9.7 0.00 0.05 0.03 78 1015.0
20260507193104 24 0 0.0 3.2 0.00 0.05 0.03 78 1015.0
20260507191556 23 45 0.0 9.7 0.00 0.05 0.03 79 1015.1
20260507190053 23 339 0.0 3.2 0.00 0.05 0.03 79 1015.5
20260507184554 23 0 0.0 6.4 0.00 0.05 0.03 80 1015.4
20260507183059 22 25 0.0 12.9 0.00 0.05 0.03 81 1015.6
20260507181551 22 70 1.6 8.0 0.00 0.05 0.03 81 1015.9
20260507180052 21 101 1.6 9.7 0.00 0.05 0.03 82 1015.9
20260507174553 20 0 0.0 4.8 0.00 0.05 0.03 82 1016.2
20260507173101 20 0 0.0 6.4 0.00 0.05 0.03 83 1016.3
20260507171558 19 0 0.0 6.4 0.00 0.05 0.03 83 1016.3
20260507170056 19 0 0.0 6.4 0.00 0.05 0.03 83 1016.2
20260507164551 19 26 0.0 14.5 0.03 0.08 0.03 83 1016.1
20260507163049 18 42 1.6 11.3 0.03 0.08 0.03 84 1016.2
20260507161551 18 0 0.0 11.3 0.03 0.08 0.03 84 1016.3
20260507160052 18 0 1.6 8.0 0.03 0.08 0.03 84 1016.3
20260507154555 18 0 1.6 8.0 0.00 0.05 0.00 84 1016.5
20260507153058 17 0 0.0 16.1 0.00 0.05 0.00 85 1016.5
20260507151551 17 0 3.2 9.7 0.00 0.05 0.00 85 1016.4
20260507150055 17 0 0.0 6.4 0.00 0.05 0.00 85 1016.1
20260507144552 17 352 3.2 16.1 0.00 0.05 0.00 85 1016.0
20260507143054 17 0 0.0 8.0 0.00 0.05 0.00 86 1016.3
20260507141550 17 0 0.0 8.0 0.00 0.05 0.00 85 1016.3
20260507140105 17 0 0.0 4.8 0.00 0.05 0.00 86 1016.4
20260507134556 17 53 0.0 12.9 0.00 0.05 0.00 86 1016.7
20260507133054 17 0 0.0 6.4 0.00 0.05 0.00 86 1016.2
20260507131552 17 5 0.0 4.8 0.00 0.05 0.00 86 1016.3
20260507130055 17 0 0.0 14.5 0.00 0.05 0.00 86 1015.9
20260507124559 17 298 0.0 3.2 0.00 0.05 0.00 86 1015.6
20260507123054 17 0 0.0 4.8 0.00 0.05 0.00 86 1015.5
20260507122033 17 360 0.0 4.8 0.00 0.05 0.00 86 1015.2
20260507121555 17 0 0.0 4.8 0.00 0.05 0.00 86 1015.3
20260507120053 17 0 0.0 4.8 0.00 0.05 0.00 86 1014.8
20260507114554 17 75 0.0 9.7 0.00 0.05 0.00 86 1014.5
20260507113054 17 57 0.0 6.4 0.00 0.05 0.00 85 1014.2
20260507111553 18 59 1.6 8.0 0.00 0.05 0.00 85 1014.4
20260507110057 18 0 1.6 11.3 0.00 0.05 0.00 85 1014.3
20260507104555 18 0 3.2 8.0 0.00 0.05 0.00 85 1014.2
20260507103055 18 0 0.0 14.5 0.00 0.05 0.00 86 1013.9
20260507101604 18 0 1.6 9.7 0.00 0.05 0.00 86 1013.7
20260507100053 18 0 3.2 11.3 0.00 0.05 0.00 86 1013.5
20260507094559 19 0 3.2 12.9 0.00 0.05 0.00 86 1013.4
20260507093052 19 78 0.0 8.0 0.00 0.05 0.00 86 1013.4
20260507091603 19 0 0.0 6.4 0.00 0.05 0.00 86 1013.4
20260507090110 20 5 1.6 9.7 0.00 0.05 0.00 86 1013.4
20260507084549 20 352 0.0 4.8 0.00 0.05 0.00 87 1013.0
20260507083100 20 9 0.0 4.8 0.00 0.05 0.00 87 1013.0
20260507081559 20 0 0.0 6.4 0.00 0.05 0.00 87 1013.2
20260507080057 20 0 0.0 3.2 0.00 0.05 0.00 87 1013.1
20260507074558 20 52 0.0 4.8 0.00 0.05 0.00 87 1013.4
20260507073101 20 0 0.0 3.2 0.00 0.05 0.00 86 1013.4
20260507071556 21 0 0.0 8.0 0.00 0.05 0.00 86 1013.1
20260507070134 21 0 0.0 4.8 0.00 0.05 0.00 86 1013.3
20260507064553 21 0 0.0 4.8 0.00 0.05 0.00 86 1013.3
20260507063055 21 0 0.0 6.4 0.00 0.05 0.00 86 1013.2
20260507061549 21 0 0.0 3.2 0.00 0.05 0.00 86 1013.2
20260507060053 21 0 0.0 8.0 0.00 0.05 0.00 87 1013.1
20260507054556 22 0 0.0 4.8 0.00 0.05 0.00 87 1012.9
20260507053055 22 0 0.0 0.0 0.00 0.05 0.00 88 1013.0
20260507051555 22 0 0.0 4.8 0.03 0.05 0.00 87 1013.0
20260507050053 22 0 0.0 3.2 0.03 0.05 0.00 87 1012.9
20260507044610 22 0 1.6 9.7 0.03 0.05 0.05 87 1012.9
20260507043049 23 0 0.0 3.2 0.03 0.05 0.05 87 1012.9
20260507041600 23 0 0.0 4.8 0.00 0.03 0.03 87 1012.8
20260507040055 24 34 0.0 3.2 0.00 0.03 0.03 87 1012.4
20260507034554 25 0 0.0 0.0 0.00 0.03 0.03 89 1012.0
20260507033052 25 0 0.0 0.0 0.00 0.03 0.03 89 1011.9
20260507031551 25 0 0.0 1.6 0.00 0.03 0.03 89 1011.6
20260507030105 25 0 0.0 3.2 0.00 0.03 0.03 88 1011.2
20260507024551 25 0 0.0 0.0 0.00 0.03 0.03 88 1011.1
20260507023052 25 0 0.0 0.0 0.00 0.03 0.03 88 1011.1
20260507021613 25 0 0.0 0.0 0.00 0.03 0.03 88 1010.9
20260507014612 25 0 0.0 0.0 0.00 0.03 0.03 87 1010.5
20260507013056 25 0 0.0 1.6 0.00 0.03 0.03 87 1010.4
20260507011551 25 0 0.0 3.2 0.00 0.03 0.03 87 1010.3
20260507010105 26 0 0.0 3.2 0.00 0.03 0.03 87 1009.5